Meteo Giornale » Osservazioni meteo Italia » Venezia-Tessera

ore: 07:50 - Osservazioni Meteo Venezia-Tessera
Lat. 45° 30' N Lon. 12° 20' E Alt. 2 metri s.l.m.

nuvoloso Europe/Rome

13 °C

Nuvoloso

Temp. 24 Ore

12 °C

16 °C

Nord-Est

11.1 Km/h

Dew point 10 °C

Umidità 81 %

Visibilità  9 Km

Il sole sorge alle ore 06:05

Il sole tramonta alle ore 20:11

Data e Ora Cielo e Fenomeni T °C DP °C Um. % Pres. hPa Vis. km Vento km/h
Oggi h: 07:50 nuvoloso Nuvoloso 13 10 81 1014 9 NE 11.1
Oggi h: 07:20 molto_nuvoloso Molto Nuvoloso 12 10 87 1014 10 N 11.1
Oggi h: 06:50 molto_nuvoloso Molto Nuvoloso 12 10 87 1014 9 N 11.1
Oggi h: 06:20 molto_nuvoloso Molto Nuvoloso 12 9 81 1014 9 N/NE 11.1
Oggi h: 05:50 molto_nuvoloso Molto Nuvoloso 12 9 81 1014 10 N/NE 14.8
Oggi h: 05:20 nuvoloso Nuvoloso 12 9 81 1014 10 N/NE 13
Oggi h: 04:50 molto_nuvoloso Molto Nuvoloso 12 9 81 1014 10 N/NE 13
Oggi h: 04:20 molto_nuvoloso Molto Nuvoloso 12 9 81 1014 10 N/NE 16.7
Oggi h: 03:50 molto_nuvoloso Molto Nuvoloso 12 9 81 1015 10 N/NE 14.8
Oggi h: 03:20 molto_nuvoloso Molto Nuvoloso 12 9 81 1015 10 N/NE 14.8
Oggi h: 02:50 molto_nuvoloso Molto Nuvoloso 13 9 76 1015 10 NE 13
Oggi h: 02:20 molto_nuvoloso Molto Nuvoloso 13 9 76 1016 10 N/NE 14.8
Oggi h: 01:50 molto_nuvoloso Molto Nuvoloso 13 9 76 1016 10 NE 16.7
Oggi h: 01:20 molto_nuvoloso Molto Nuvoloso 12 9 81 1016 10 NE 18.5
Oggi h: 00:50 molto_nuvoloso Molto Nuvoloso 12 9 81 1017 10 N/NE 14.8
Oggi h: 00:20 molto_nuvoloso Molto Nuvoloso 12 9 81 1017 10 N/NE 14.8
Ieri h: 23:50 molto_nuvoloso Molto Nuvoloso 13 9 76 1017 10 N/NE 13
Ieri h: 23:20 nuvoloso Nuvoloso 13 10 81 1017 10 N/NE 14.8
Ieri h: 22:50 nuvoloso Nuvoloso 14 10 76 1017 10 N/NE 13
Ieri h: 22:20 nuvoloso Nuvoloso 15 12 82 1017 10 E 11.1
Ieri h: 21:50 nuvoloso Nuvoloso 14 11 82 1017 10 E 11.1
Ieri h: 21:20 molto_nuvoloso Molto Nuvoloso 14 11 82 1017 10 E 11.1
Ieri h: 20:50 nuvoloso Nuvoloso 15 11 76 1017 10 E 11.1
Ieri h: 20:20 nuvoloso Nuvoloso 15 11 76 1017 10 E 11.1
Ieri h: 19:50 nuvoloso Nuvoloso 15 10 72 1017 10 E 9.3
Ieri h: 19:20 nuvoloso Nuvoloso 15 10 72 1017 10 E 13
Ieri h: 18:50 nuvoloso Nuvoloso 15 11 76 1017 10 E 14.8
Ieri h: 17:50 nuvoloso Nuvoloso 15 10 72 1018 10 E 14.8
Ieri h: 17:20 molto_nuvoloso Molto Nuvoloso 15 11 76 1018 10 E 16.7
Ieri h: 16:50 molto_nuvoloso Molto Nuvoloso 15 10 72 1018 10 E/NE 16.7
Ieri h: 16:20 nuvoloso Nuvoloso 16 10 67 1018 10 E 16.7
Ieri h: 15:50 nuvoloso Nuvoloso 15 10 72 1018 10 E 14.8
Ieri h: 15:20 molto_nuvoloso Molto Nuvoloso 15 10 72 1019 10 E/NE 16.7
Ieri h: 14:50 molto_nuvoloso Molto Nuvoloso 15 10 72 1019 10 E 16.7
Ieri h: 14:20 molto_nuvoloso Molto Nuvoloso 15 10 72 1019 10 E/NE 18.5
Ieri h: 13:50 molto_nuvoloso Molto Nuvoloso 15 8 62 1020 10 E/NE 16.7
Ieri h: 13:20 molto_nuvoloso Molto Nuvoloso 15 8 62 1020 10 E/NE 14.8
Ieri h: 12:50 molto_nuvoloso Molto Nuvoloso 15 8 62 1020 10 E/NE 13
Ieri h: 12:20 molto_nuvoloso Molto Nuvoloso 15 8 62 1021 10 NE 13
Ieri h: 11:50 molto_nuvoloso Molto Nuvoloso 14 7 62 1021 10 NE 14.8
Ieri h: 11:20 molto_nuvoloso Molto Nuvoloso 14 7 62 1021 10 NE 13
Ieri h: 10:50 molto_nuvoloso Molto Nuvoloso 14 7 62 1021 10 NE 11.1
Ieri h: 10:20 molto_nuvoloso Molto Nuvoloso 14 7 62 1021 10 NE 11.1
Ieri h: 09:50 molto_nuvoloso Molto Nuvoloso 14 7 62 1021 10 NE 11.1
Ieri h: 09:20 molto_nuvoloso Molto Nuvoloso 13 6 62 1020 10 N/NE 13
Ieri h: 08:50 molto_nuvoloso Molto Nuvoloso 13 6 62 1021 10 N/NE 13